CW9754 Weather Reports


time (UTC)temp
F
wind
direction
speed
knots
gust
knots
rain 1hr
in
rain 24hr
in
rain mn
in
humidity
%
barometer
mb
20260507200020 84 111 7.8 13.9 0.00 0.41 0.41 77 1014.8
20260507194502 84 109 7.8 14.8 0.00 0.41 0.41 77 1014.9
20260507193010 84 146 7.8 16.5 0.00 0.41 0.41 77 1015.1
20260507191525 85 137 7.8 13.9 0.00 0.41 0.41 77 1015.2
20260507190012 85 196 9.6 14.8 0.00 0.41 0.41 77 1015.3
20260507184529 85 122 7.8 14.8 0.00 0.41 0.41 76 1015.4
20260507183007 84 151 7.8 15.6 0.00 0.41 0.41 77 1015.5
20260507181504 85 165 6.1 19.1 0.00 0.41 0.41 77 1015.7
20260507180016 84 180 6.1 17.4 0.00 0.41 0.41 77 1015.8
20260507174521 85 113 8.7 14.8 0.00 0.41 0.41 75 1015.9
20260507173021 85 127 7.8 14.8 0.00 0.41 0.41 74 1016.1
20260507171521 85 144 7.8 15.6 0.00 0.41 0.41 77 1016.3
20260507170007 85 204 7.0 13.0 0.00 0.41 0.41 77 1016.6
20260507164510 84 134 7.8 13.9 0.00 0.41 0.41 76 1016.8
20260507163016 85 136 10.4 14.8 0.00 0.41 0.41 75 1017.0
20260507161529 85 107 6.1 13.9 0.00 0.41 0.41 77 1017.2
20260507160005 84 140 5.2 14.8 0.00 0.41 0.41 79 1017.3
20260507154505 84 124 6.1 13.9 0.00 0.41 0.41 79 1017.4
20260507153012 84 144 7.8 13.9 0.00 0.41 0.41 79 1017.5
20260507151525 83 166 8.7 13.0 0.01 0.41 0.41 79 1017.5
20260507150007 83 145 7.8 13.9 0.24 0.41 0.41 80 1017.6
20260507144508 82 134 8.7 13.0 0.24 0.41 0.41 83 1017.6
20260507143009 80 101 4.3 10.4 0.24 0.41 0.41 89 1017.7
20260507141524 79 148 1.7 17.4 0.23 0.40 0.40 87 1017.7
20260507140021 81 88 6.1 13.0 0.01 0.17 0.17 83 1017.8
20260507134503 82 103 4.3 12.2 0.01 0.17 0.17 81 1017.5
20260507133010 82 124 8.7 13.0 0.01 0.17 0.17 80 1017.5
20260507131521 81 121 6.1 9.6 0.01 0.17 0.17 85 1017.3
20260507130029 82 130 6.1 10.4 0.00 0.16 0.16 81 1017.4
20260507124523 82 144 7.0 11.3 0.00 0.16 0.16 81 1017.2
20260507123009 82 140 6.1 11.3 0.00 0.16 0.16 80 1017.0
20260507121512 82 124 5.2 11.3 0.00 0.16 0.16 83 1016.7
20260507120014 82 138 4.3 11.3 0.00 0.16 0.16 83 1016.7
20260507114525 81 133 4.3 13.0 0.00 0.16 0.16 85 1016.6
20260507113024 79 102 6.1 9.6 0.00 0.16 0.16 90 1016.6
20260507111510 78 121 2.6 7.0 0.00 0.16 0.16 91 1016.5
20260507110014 78 117 2.6 6.1 0.00 0.16 0.16 91 1016.4
20260507104518 77 41 1.7 5.2 0.16 0.16 0.16 91 1016.1
20260507103023 77 40 0.9 7.0 0.16 0.16 0.16 91 1016.1
20260507101506 77 54 2.6 5.2 0.16 0.16 0.16 90 1016.0
20260507100016 78 64 0.9 5.2 0.16 0.16 0.16 88 1016.1
20260507094518 78 39 1.7 4.3 0.00 0.00 0.00 86 1016.1
20260507093024 78 39 0.0 3.5 0.00 0.00 0.00 85 1015.9
20260507091506 78 39 0.9 4.3 0.00 0.00 0.00 85 1015.9
20260507090009 78 39 0.9 3.5 0.00 0.00 0.00 85 1015.8
20260507084513 79 39 1.7 5.2 0.00 0.00 0.00 85 1015.8
20260507083020 79 39 0.9 5.2 0.00 0.00 0.00 85 1015.7
20260507081523 79 39 1.7 4.3 0.00 0.00 0.00 85 1015.5
20260507080007 79 39 0.9 4.3 0.00 0.00 0.00 85 1015.5
20260507074509 79 39 0.9 4.3 0.00 0.00 0.00 85 1015.7
20260507073016 79 39 1.7 7.0 0.00 0.00 0.00 85 1015.8
20260507071521 79 39 2.6 7.0 0.00 0.00 0.00 85 1015.9
20260507070033 79 39 1.7 5.2 0.00 0.00 0.00 85 1015.9
20260507064509 79 39 2.6 7.0 0.00 0.00 0.00 85 1016.1
20260507063019 79 39 0.9 4.3 0.00 0.00 0.00 85 1016.2
20260507061520 79 39 1.7 3.5 0.00 0.00 0.00 84 1016.5
20260507060023 79 39 0.9 3.5 0.00 0.00 0.00 84 1016.6
20260507054534 79 39 0.9 3.5 0.00 0.00 0.00 83 1016.8
20260507053012 79 39 1.7 3.5 0.00 0.00 0.00 83 1017.1
20260507051517 79 39 0.0 4.3 0.00 0.00 0.00 82 1017.4
20260507050031 79 39 0.9 7.0 0.00 0.00 0.00 82 1017.6
20260507044533 79 39 3.5 7.8 0.00 0.00 0.00 83 1017.9
20260507043028 79 42 1.7 3.5 0.00 0.00 0.00 84 1018.0
20260507041523 79 42 0.9 3.5 0.00 0.00 0.00 85 1018.1
20260507040017 78 42 0.9 2.6 0.00 0.00 0.00 85 1018.2
20260507034524 78 42 0.0 3.5 0.00 0.00 0.00 85 1018.3
20260507033029 79 42 0.9 4.3 0.00 0.00 0.00 84 1018.3
20260507031530 79 42 0.9 2.6 0.00 0.00 0.00 84 1018.3
20260507030016 79 42 1.7 4.3 0.00 0.00 0.00 84 1018.4
20260507024524 79 42 1.7 3.5 0.00 0.00 0.00 83 1018.4
20260507023025 79 42 0.9 2.6 0.00 0.00 0.00 83 1018.4
20260507021503 79 42 0.9 3.5 0.00 0.00 0.00 83 1018.2
20260507020005 80 42 0.9 3.5 0.00 0.00 0.00 82 1018.4
20260507014506 80 42 1.7 4.3 0.00 0.00 0.00 82 1018.2
20260507013004 80 42 1.7 4.3 0.00 0.00 0.00 81 1018.1
20260507011506 80 42 1.7 3.5 0.00 0.00 0.00 81 1018.1
20260507010004 81 42 0.9 3.5 0.00 0.00 0.00 80 1018.0
20260507004515 81 42 1.7 4.3 0.00 0.00 0.00 80 1017.7
20260507003004 81 42 2.6 4.3 0.00 0.00 0.00 80 1017.6
20260507001504 81 76 0.0 5.2 0.00 0.00 0.00 80 1017.5
20260507000006 81 107 1.7 5.2 0.00 0.00 0.00 81 1017.4
20260506234506 82 90 2.6 6.1 0.00 0.00 0.00 81 1017.2
20260506233004 82 109 2.6 7.8 0.00 0.00 0.00 80 1017.2
20260506231517 82 149 2.6 6.1 0.00 0.00 0.00 80 1017.1
20260506230003 82 132 2.6 7.8 0.00 0.00 0.00 79 1016.9
20260506224505 82 121 2.6 7.8 0.00 0.00 0.00 79 1017.0
20260506223006 82 142 3.5 8.7 0.00 0.00 0.00 79 1016.7
20260506221504 83 108 3.5 7.8 0.00 0.00 0.00 78 1016.7
20260506220004 83 155 3.5 8.7 0.00 0.00 0.00 78 1016.6
20260506214507 83 163 4.3 8.7 0.00 0.00 0.00 77 1016.7
20260506213003 84 161 5.2 9.6 0.00 0.00 0.00 75 1016.6
20260506211513 84 134 6.1 9.6 0.00 0.00 0.00 76 1016.6
20260506210008 84 117 5.2 9.6 0.00 0.00 0.00 77 1016.4
20260506204506 84 139 5.2 13.0 0.00 0.00 0.00 78 1016.3
20260506203009 85 171 5.2 12.2 0.00 0.00 0.00 76 1016.2
20260506201511 85 150 5.2 11.3 0.00 0.00 0.00 77 1016.3